Voltar ao catálogo

THORAD AGENA D DEB

AtivoSSO
NORAD 42496·DEBRIS·🇺🇸 United States

Lançado Apr 8, 1970 de Vandenberg Space Force Base

Loading…

Próximas Passagens (próximas 24 horas)

TLE

AtualizadoSource: Space-Track

Época: Sep 13, 2026, 14:27 UTC

1 42496U 70025RA  26256.60258609  .00000191  00000-0  37404-3 0  9998
2 42496  99.6066 128.2435 0053048 254.4283 134.1496 13.48501150630078

Acompanhe THORAD AGENA D DEB em tempo real com AllMySat

Download on the App Store